Location: Ellerstadt
(49.4644°N, 8.2615°E)
Time: 00:14:27
(UTC+00:00)

USA 308 - Pass Details

Date: 03 March 2021
Orbit: 568 x 576 km, 54.0° (Epoch: 13 April)

Event Time Altitude Azimuth Distance (km) Brightness Sun altitude
Rises 20:07:08 0° 292° (WNW) 2,778 7.7 -28.4°
Reaches altitude 10° 20:09:25 10° 296° (WNW) 1,877 6.5 -28.7°
Enters shadow 20:12:07 35° 314° (NW) 923 4.4 -29.1°
